Location: Austin
(30.3000°N, 97.7500°W)
Time: 00:59:34
(UTC-06:00)

CZ-2D R/B - Pass Details

Date: 04 November 2025
Orbit: 526 x 598 km, 98.0° (Epoch: 15 November)

Event Time Altitude Azimuth Distance (km) Brightness Sun altitude
Rises 18:12:34 0° 140° (SE) 2,690 6.6 -7.4°
Reaches altitude 10° 18:14:57 10° 126° (SE) 1,814 5.6 -7.9°
Maximum altitude 18:18:07 24° 72° (ENE) 1,176 4.4 -8.6°
Drops below altitude 10° 18:21:21 10° 18° (NNE) 1,858 5.7 -9.3°
Sets 18:23:49 0° 4° (N) 2,773 6.7 -9.8°
